Weather Roundup
Issued by NWS Springfield, MO

Home | Current Version | Previous Version | Graphics & Text | Print | Product List | Glossary On
Versions: 1 2 3 4 5 6 7 8 9 10 11 12 13 14 15 16 17 18 19 20 21 22 23 24 25 26 27 28 29 30 31 32 33 34 35 36 37 38 39 40 41 42 43 44 45 46 47 48 49 50
000
NZUS99 KSGF 222157
HRRSGF

HOURLY WEATHER
NATIONAL WEATHER SERVICE SPRINGFIELD MO
500 PM CDT TUE MAY 22 2018

......SGF CWA......

CITY           SKY/WX    TMP DP  RH WIND       PRES   REMARKS
SPRINGFIELD    MOSUNNY   86  66  51 NE12      29.99F
JOPLIN         PTSUNNY   84  68  58 N7        29.99F
WEST PLAINS    SUNNY     84  66  54 E5        30.02F
ROLLA          SUNNY     83  61  47 N6        30.04F
BRANSON        PTSUNNY   84  64  51 E6        30.02S

......SURROUNDING SGF CWA......

CITY           SKY/WX    TMP DP  RH WIND       PRES   REMARKS
CHANUTE        CLOUDY    85  68  56 SE10      29.98F
PARSONS        CLOUDY    85  69  58 SE5       29.98F
COFFEYVILLE    CLOUDY    87  68  52 S5        29.95F HX  90
EMPORIA        MOSUNNY   83  65  54 SE10      29.98S
HARRISON AR    CLOUDY    78  68  71 SE12      30.03R
NEAR YELLVILLE CLOUDY    73  66  78 SW3       30.00F

......KANSAS AND MISSOURI......

CITY           SKY/WX    TMP DP  RH WIND       PRES   REMARKS
KANSAS CTY INT MOSUNNY   84  62  47 S10       29.99F
SEDALIA        SUNNY     83  64  52 E7        30.02F
ST JOSEPH      MOSUNNY   86  64  47 S15       29.96F
ST LOUIS       MOSUNNY   83  64  52 N7        30.02F
WICHITA        CLOUDY    86  65  49 S15G22    29.94F
TOPEKA         MOSUNNY   86  66  51 SE15G22   29.97F
OLATHE         SUNNY     82  65  56 SE12      30.00F

......TENNESSEE......

CITY           SKY/WX    TMP DP  RH WIND       PRES   REMARKS
MEMPHIS        NOT AVBL
NASHVILLE      LGT RAIN  76  71  85 SW6       30.01S

......ARKANSAS.......

CITY           SKY/WX    TMP DP  RH WIND       PRES   REMARKS
FAYETTEVILLE   PTSUNNY   79  68  69 S17       30.00R
FT SMITH       CLOUDY    79  68  69 CALM      29.97S
LITTLE ROCK    PTSUNNY   77  71  82 CALM      29.97F

......OKLAHOMA.......

CITY           SKY/WX    TMP DP  RH WIND       PRES   REMARKS
TULSA          PTSUNNY   89  65  44 E9        29.92F HX  91
MCALESTER      CLOUDY    80  70  71 SE12G17   29.96F
OKLAHOMA CITY  MOSUNNY   85  63  47 S9        29.95F

......IOWA............

CITY           SKY/WX    TMP DP  RH WIND       PRES   REMARKS
DES MOINES     NOT AVBL
QUAD CITIES    FAIR      76  61  59 CALM      30.02F

......ILLINOIS........

CITY           SKY/WX    TMP DP  RH WIND       PRES   REMARKS
QUINCY         NOT AVBL
CHICAGO        CLOUDY    64  54  69 E5        30.05R





USA.gov is the U.S. government's official web portal to all federal, state and local government web resources and services.